NORTHERN QUEENS  -  Air Quality Alert Air Quality Alert        SOUTHERN QUEENS  -  Air Quality Alert Air Quality Alert      

Active alerts

Northern Queens
  Details for Northern Queens Air Quality Alert
Southern Queens
  Details for Southern Queens Air Quality Alert


WXM80 ListenWXM80 Stop

You find our weather info also at:

UK Metoffice

WeatherCloud

Weather Underground

Northeastern Weather Network

AWEKAS

Citizen Weather Observer Program (CWOP)

HAMweather, WeatherForYou, PWS Weather


Weather Underground History page Text

Daily Summary for June 7, 2017 Units:  Metric    English   Both
« Previous Day
Next Day »
Daily Weekly Monthly Yearly Custom
  High: Low: Average:
Temperature: 23.2 °C 11.2 °C 16.3 °C
Dew Point: 14.6 °C 9.5 °C 11.3 °C
Humidity: 92 % 46 % 74 %
Wind Speed: 11.9 km/h 0 km/h 3.4 km/h
Wind Gust: 20.9 km/h - -
Wind:- - SE
Pressure: 1015.5 hPa 1012.1 hPa -
Precipitation: 0 mm    
Historical Graphs
 
 
Tabular Data for June 7, 2017
Time Temperature Dew Point Pressure Wind Wind Speed Wind Gust Humidity Rainfall Rate (Hourly)
00:03 11.3 °C 9.6 °C 1012.1 hPa ENE 6.4 km/h 8 km/h 89 % 0 mm
00:13 11.4 °C 9.7 °C 1012.4 hPa ENE 6 km/h 11.1 km/h 89 % 0 mm
00:15 11.4 °C 9.7 °C 1012.4 hPa East 9.3 km/h 17.7 km/h 89 % 0 mm
00:20 11.4 °C 9.7 °C 1012.1 hPa ENE 7.1 km/h 13 km/h 89 % 0 mm
00:25 11.5 °C 9.6 °C 1012.1 hPa East 5.6 km/h 16.7 km/h 88 % 0 mm
00:30 11.5 °C 9.7 °C 1012.1 hPa ENE 9.7 km/h 11.3 km/h 89 % 0 mm
00:36 11.6 °C 9.8 °C 1012.1 hPa ENE 8 km/h 19.3 km/h 89 % 0 mm
00:41 11.6 °C 9.8 °C 1012.1 hPa ENE 9.7 km/h 16.1 km/h 89 % 0 mm
00:46 11.5 °C 9.8 °C 1012.1 hPa ENE 8 km/h 16.1 km/h 89 % 0 mm
00:51 11.5 °C 9.8 °C 1012.1 hPa ENE 4.8 km/h 16.1 km/h 89 % 0 mm
00:56 11.5 °C 9.7 °C 1012.1 hPa ENE 10.8 km/h 16.7 km/h 89 % 0 mm
01:01 11.5 °C 9.7 °C 1012.4 hPa ENE 11.3 km/h 11.3 km/h 89 % 0 mm
01:06 11.5 °C 9.7 °C 1012.4 hPa ENE 11.3 km/h 20.9 km/h 89 % 0 mm
01:11 11.4 °C 9.5 °C 1012.1 hPa East 11.3 km/h 19.3 km/h 88 % 0 mm
01:16 11.4 °C 9.7 °C 1012.4 hPa ENE 11.3 km/h 20.9 km/h 89 % 0 mm
01:21 11.4 °C 9.5 °C 1012.4 hPa ENE 7.2 km/h 18.5 km/h 88 % 0 mm
01:26 11.4 °C 9.7 °C 1012.4 hPa ENE 5.5 km/h 13 km/h 89 % 0 mm
01:31 11.4 °C 9.7 °C 1012.4 hPa NNE 5.1 km/h 13 km/h 89 % 0 mm
01:36 11.4 °C 9.7 °C 1012.4 hPa NNE 6.1 km/h 16.7 km/h 89 % 0 mm
01:41 11.4 °C 9.7 °C 1012.4 hPa NE 5 km/h 11.3 km/h 89 % 0 mm
01:46 11.3 °C 9.6 °C 1012.4 hPa NE 4.8 km/h 16.1 km/h 89 % 0 mm
01:51 11.3 °C 9.6 °C 1012.4 hPa NNE 7.6 km/h 14.5 km/h 89 % 0 mm
01:56 11.3 °C 9.8 °C 1012.4 hPa ENE 6 km/h 11.3 km/h 90 % 0 mm
02:01 11.3 °C 9.9 °C 1012.4 hPa NE 5.8 km/h 8 km/h 91 % 0 mm
02:06 11.3 °C 9.9 °C 1012.4 hPa ENE 7.6 km/h 14.8 km/h 91 % 0 mm
02:11 11.3 °C 9.9 °C 1012.4 hPa NE 6.4 km/h 13 km/h 91 % 0 mm
02:16 11.2 °C 9.8 °C 1012.4 hPa NE 7.6 km/h 16.7 km/h 91 % 0 mm
02:21 11.2 °C 9.8 °C 1012.4 hPa NE 4.8 km/h 7.4 km/h 91 % 0 mm
02:26 11.2 °C 9.8 °C 1012.1 hPa ENE 5.5 km/h 13 km/h 91 % 0 mm
02:31 11.2 °C 9.6 °C 1012.1 hPa North 8.7 km/h 17.7 km/h 90 % 0 mm
02:36 11.2 °C 9.6 °C 1012.1 hPa ENE 5.3 km/h 13 km/h 90 % 0 mm
02:41 11.2 °C 9.7 °C 1012.4 hPa North 8.9 km/h 16.7 km/h 90 % 0 mm
02:46 11.3 °C 9.7 °C 1012.4 hPa NNE 9.8 km/h 16.7 km/h 90 % 0 mm
02:51 11.3 °C 9.7 °C 1012.4 hPa NNE 11.3 km/h 18.5 km/h 90 % 0 mm
02:56 11.3 °C 9.8 °C 1012.1 hPa NNE 9.5 km/h 17.7 km/h 90 % 0 mm
03:00 11.3 °C 9.8 °C 1012.4 hPa NNE 9 km/h 13 km/h 90 % 0 mm
03:05 11.4 °C 9.9 °C 1012.4 hPa NNE 7.1 km/h 9.7 km/h 91 % 0 mm
03:10 11.4 °C 9.8 °C 1012.1 hPa North 8 km/h 13 km/h 90 % 0 mm
03:15 11.3 °C 9.8 °C 1012.1 hPa NE 8.9 km/h 16.7 km/h 90 % 0 mm
03:20 11.3 °C 9.8 °C 1012.1 hPa NE 4.5 km/h 16.7 km/h 90 % 0 mm
03:25 11.3 °C 9.8 °C 1012.1 hPa ENE 6 km/h 16.7 km/h 90 % 0 mm
03:30 11.3 °C 9.8 °C 1012.1 hPa NNE 10 km/h 18.5 km/h 90 % 0 mm
03:35 11.3 °C 9.8 °C 1012.1 hPa NNE 5.5 km/h 14.8 km/h 90 % 0 mm
03:41 11.3 °C 9.8 °C 1012.1 hPa NE 8 km/h 14.5 km/h 90 % 0 mm
03:46 11.3 °C 9.8 °C 1012.1 hPa NE 8 km/h 14.5 km/h 90 % 0 mm
03:51 11.3 °C 9.7 °C 1012.1 hPa NNE 8 km/h 16.1 km/h 90 % 0 mm
03:56 11.3 °C 9.8 °C 1012.1 hPa NNE 8 km/h 19.3 km/h 90 % 0 mm
04:01 11.3 °C 9.8 °C 1012.1 hPa NNE 7.6 km/h 14.5 km/h 90 % 0 mm
04:06 11.3 °C 9.8 °C 1012.1 hPa North 8.4 km/h 18.5 km/h 90 % 0 mm
04:11 11.3 °C 9.8 °C 1012.1 hPa NE 8.7 km/h 16.7 km/h 90 % 0 mm
04:16 11.3 °C 9.8 °C 1012.1 hPa ENE 5.1 km/h 7.4 km/h 90 % 0 mm
04:21 11.4 °C 9.9 °C 1012.1 hPa NE 9.5 km/h 16.7 km/h 91 % 0 mm
04:26 11.4 °C 9.8 °C 1012.1 hPa NNE 7.2 km/h 16.7 km/h 90 % 0 mm
04:31 11.4 °C 9.8 °C 1012.1 hPa NE 6.4 km/h 8 km/h 90 % 0 mm
04:36 11.4 °C 9.8 °C 1012.1 hPa NNE 7.1 km/h 16.7 km/h 90 % 0 mm
04:41 11.4 °C 9.9 °C 1012.4 hPa NNE 7.2 km/h 13 km/h 91 % 0 mm
04:46 11.4 °C 10 °C 1012.4 hPa NE 11.9 km/h 20.4 km/h 91 % 0 mm
04:51 11.4 °C 9.9 °C 1012.4 hPa NNE 8.7 km/h 14.8 km/h 91 % 0 mm
04:56 11.3 °C 9.9 °C 1012.4 hPa NE 5.8 km/h 7.4 km/h 91 % 0 mm
05:01 11.3 °C 9.9 °C 1012.4 hPa NNE 10 km/h 13 km/h 91 % 0 mm
05:06 11.3 °C 9.9 °C 1012.4 hPa NNE 9.7 km/h 12.9 km/h 91 % 0 mm
05:11 11.3 °C 9.9 °C 1012.4 hPa NNE 9.3 km/h 14.8 km/h 91 % 0 mm
05:16 11.3 °C 9.9 °C 1012.4 hPa North 6.8 km/h 11.1 km/h 91 % 0 mm
05:21 11.3 °C 9.9 °C 1012.4 hPa NNE 8.4 km/h 11.1 km/h 91 % 0 mm
05:26 11.3 °C 9.9 °C 1012.4 hPa NNE 5.8 km/h 9.3 km/h 91 % 0 mm
05:32 11.3 °C 9.9 °C 1012.4 hPa NE 5 km/h 11.1 km/h 91 % 0 mm
05:37 11.3 °C 9.9 °C 1012.4 hPa North 4.7 km/h 11.1 km/h 91 % 0 mm
05:42 11.3 °C 9.9 °C 1012.4 hPa NNE 8.2 km/h 12.9 km/h 91 % 0 mm
05:47 11.3 °C 10.1 °C 1012.4 hPa NNE 7.2 km/h 13 km/h 92 % 0 mm
05:52 11.3 °C 10.1 °C 1012.4 hPa NNE 6.8 km/h 16.7 km/h 92 % 0 mm
05:57 11.3 °C 10.1 °C 1012.4 hPa North 6.4 km/h 13 km/h 92 % 0 mm
06:02 11.3 °C 9.9 °C 1012.8 hPa NE 5.8 km/h 12.9 km/h 91 % 0 mm
06:07 11.4 °C 10.1 °C 1012.8 hPa NNE 4.8 km/h 5.6 km/h 92 % 0 mm
06:12 11.4 °C 9.9 °C 1012.8 hPa NNE 8.9 km/h 14.8 km/h 91 % 0 mm
06:17 11.4 °C 10 °C 1012.8 hPa NNE 5.5 km/h 9.3 km/h 91 % 0 mm
06:22 11.4 °C 10 °C 1013.1 hPa NNE 3.4 km/h 8 km/h 91 % 0 mm
06:27 11.4 °C 10 °C 1013.1 hPa North 6 km/h 12.9 km/h 91 % 0 mm
06:32 11.5 °C 10.2 °C 1013.1 hPa NNE 4.5 km/h 7.4 km/h 92 % 0 mm
06:37 11.5 °C 10.2 °C 1013.1 hPa NNE 6.1 km/h 9.3 km/h 92 % 0 mm
06:42 11.6 °C 10.3 °C 1013.1 hPa North 5.1 km/h 9.3 km/h 92 % 0 mm
06:47 11.6 °C 10.3 °C 1013.1 hPa ENE 2.7 km/h 5.6 km/h 92 % 0 mm
06:52 11.6 °C 10.3 °C 1013.1 hPa NNE 6 km/h 7.4 km/h 92 % 0 mm
06:57 11.7 °C 10.4 °C 1013.1 hPa NNE 4.7 km/h 8 km/h 92 % 0 mm
06:58 11.7 °C 10.4 °C 1013.1 hPa NNE 6 km/h 8 km/h 92 % 0 mm
07:03 11.7 °C 10.4 °C 1013.4 hPa North 7.1 km/h 9.3 km/h 92 % 0 mm
07:08 11.7 °C 10.4 °C 1013.1 hPa NNE 5.3 km/h 9.3 km/h 92 % 0 mm
07:13 11.8 °C 10.4 °C 1013.4 hPa NE 3.7 km/h 9.3 km/h 91 % 0 mm
07:18 11.9 °C 10.4 °C 1013.4 hPa NNE 5.8 km/h 8 km/h 91 % 0 mm
07:23 11.9 °C 10.5 °C 1013.4 hPa North 3.7 km/h 7.4 km/h 91 % 0 mm
07:28 12 °C 10.6 °C 1013.4 hPa NNE 1.8 km/h 5.6 km/h 91 % 0 mm
07:33 12.1 °C 10.7 °C 1013.4 hPa NNE 5.6 km/h 7.4 km/h 91 % 0 mm
07:38 12.2 °C 10.8 °C 1013.4 hPa ENE 2.9 km/h 5.6 km/h 91 % 0 mm
07:43 12.3 °C 10.9 °C 1013.4 hPa NNE 7.4 km/h 11.1 km/h 91 % 0 mm
07:48 12.4 °C 10.8 °C 1013.4 hPa NNE 1.6 km/h 5.6 km/h 90 % 0 mm
07:53 12.5 °C 10.9 °C 1013.4 hPa NNW 5.6 km/h 8 km/h 90 % 0 mm
07:58 12.6 °C 10.8 °C 1013.8 hPa NNE 2.6 km/h 5.6 km/h 89 % 0 mm
08:03 12.8 °C 11 °C 1013.8 hPa South 1.9 km/h 3.7 km/h 89 % 0 mm
08:08 12.9 °C 11.1 °C 1013.8 hPa North 1.8 km/h 8 km/h 89 % 0 mm
08:13 13.1 °C 11.3 °C 1013.8 hPa NE 1 km/h 6.4 km/h 89 % 0 mm
08:18 13.2 °C 11.3 °C 1013.8 hPa NNE 1.4 km/h 5.6 km/h 88 % 0 mm
08:23 13.4 °C 11.3 °C 1014.1 hPa North 3.5 km/h 5.6 km/h 87 % 0 mm
08:27 13.6 °C 11.4 °C 1014.1 hPa NW 3.4 km/h 5.6 km/h 87 % 0 mm
08:32 13.7 °C 11.2 °C 1014.1 hPa WNW 2.9 km/h 7.4 km/h 85 % 0 mm
08:37 13.7 °C 11.2 °C 1014.1 hPa NNW 3.9 km/h 5.6 km/h 85 % 0 mm
08:42 13.8 °C 11.3 °C 1014.1 hPa North 4.5 km/h 7.4 km/h 85 % 0 mm
08:47 14 °C 11.5 °C 1014.1 hPa NW 1.1 km/h 5.6 km/h 85 % 0 mm
08:52 14.1 °C 11.4 °C 1014.1 hPa NNE 4.5 km/h 9.3 km/h 84 % 0 mm
08:57 14.2 °C 11.6 °C 1014.4 hPa NNE 3.5 km/h 5.6 km/h 84 % 0 mm
09:02 14.3 °C 11.7 °C 1014.4 hPa NNE 1.6 km/h 4.8 km/h 84 % 0 mm
09:07 14.4 °C 11.6 °C 1014.4 hPa NNW 2.4 km/h 5.6 km/h 83 % 0 mm
09:12 14.5 °C 11.7 °C 1014.4 hPa NNW 0.6 km/h 3.2 km/h 83 % 0 mm
09:17 14.6 °C 11.5 °C 1014.4 hPa North 2.4 km/h 6.4 km/h 82 % 0 mm
09:22 14.6 °C 11.8 °C 1014.4 hPa NNW 0.8 km/h 1.9 km/h 83 % 0 mm
09:27 14.7 °C 11.9 °C 1014.4 hPa NNW 0.6 km/h 3.2 km/h 83 % 0 mm
09:32 14.8 °C 11.9 °C 1014.4 hPa NNW 1 km/h 3.7 km/h 83 % 0 mm
09:38 14.9 °C 12 °C 1014.4 hPa NNW 1.6 km/h 3.7 km/h 83 % 0 mm
09:43 15 °C 12.1 °C 1014.1 hPa NNW 3.9 km/h 5.6 km/h 83 % 0 mm
09:48 15.1 °C 12 °C 1014.1 hPa NW 0.2 km/h 1.9 km/h 82 % 0 mm
09:53 15.2 °C 11.9 °C 1014.1 hPa NW 0.8 km/h 3.2 km/h 81 % 0 mm
09:58 15.2 °C 11.8 °C 1014.1 hPa NW 0.6 km/h 3.7 km/h 80 % 0 mm
10:03 15.3 °C 11.9 °C 1014.1 hPa NW 0.5 km/h 1.9 km/h 80 % 0 mm
10:08 15.5 °C 12.4 °C 1014.1 hPa Calm     82 % 0 mm
10:13 15.7 °C 12.4 °C 1014.1 hPa North 0.5 km/h 1.9 km/h 81 % 0 mm
10:18 15.9 °C 12.7 °C 1014.1 hPa Calm     81 % 0 mm
10:23 16.1 °C 12.3 °C 1014.1 hPa NNE 0.2 km/h 5.6 km/h 78 % 0 mm
10:28 16.3 °C 12.2 °C 1014.1 hPa NNE 3.5 km/h 6.4 km/h 77 % 0 mm
10:33 16.4 °C 12.2 °C 1014.1 hPa NNE 0.3 km/h 1.9 km/h 76 % 0 mm
10:38 16.6 °C 12.5 °C 1014.4 hPa North 1.6 km/h 3.7 km/h 77 % 0 mm
10:43 16.8 °C 12.7 °C 1014.1 hPa NNE 0.2 km/h 5.6 km/h 77 % 0 mm
10:48 17.1 °C 13 °C 1014.1 hPa NNW 2.7 km/h 3.7 km/h 77 % 0 mm
10:53 17.5 °C 13.2 °C 1014.1 hPa North 4.5 km/h 5.6 km/h 76 % 0 mm
10:58 17.9 °C 13 °C 1014.1 hPa North 2.3 km/h 5.6 km/h 73 % 0 mm
11:03 18.3 °C 13.4 °C 1014.4 hPa NE 2.1 km/h 3.2 km/h 73 % 0 mm
11:08 18.6 °C 13.2 °C 1014.4 hPa NE 1.6 km/h 5.6 km/h 71 % 0 mm
11:14 18.7 °C 13.1 °C 1014.4 hPa NNE 0.2 km/h 3.7 km/h 70 % 0 mm
11:19 18.8 °C 13.2 °C 1014.4 hPa NNE 2.9 km/h 5.6 km/h 70 % 0 mm
11:24 18.9 °C 13.3 °C 1014.4 hPa NE 1.1 km/h 5.6 km/h 70 % 0 mm
11:29 19 °C 13.2 °C 1014.1 hPa NE 1.9 km/h 5.6 km/h 69 % 0 mm
11:34 19.1 °C 13.4 °C 1014.1 hPa NE 0.6 km/h 3.7 km/h 70 % 0 mm
11:39 19.2 °C 13.6 °C 1014.1 hPa SE 0.3 km/h 1.9 km/h 70 % 0 mm
11:44 19.1 °C 12.6 °C 1014.1 hPa NE 2.1 km/h 5.6 km/h 66 % 0 mm
11:49 18.8 °C 12.6 °C 1014.4 hPa ENE 3.9 km/h 6.4 km/h 67 % 0 mm
11:54 18.8 °C 12.8 °C 1014.1 hPa ENE 1.3 km/h 4.8 km/h 68 % 0 mm
11:59 18.8 °C 12.3 °C 1014.1 hPa ENE 1.6 km/h 5.6 km/h 66 % 0 mm
12:04 18.9 °C 12.4 °C 1014.1 hPa ENE 2.7 km/h 6.4 km/h 66 % 0 mm
12:09 19.1 °C 13.7 °C 1014.1 hPa NNE 2.1 km/h 6.4 km/h 71 % 0 mm
12:14 19.2 °C 14.1 °C 1014.1 hPa NNE 0.8 km/h 3.7 km/h 72 % 0 mm
12:19 19.4 °C 12.4 °C 1014.1 hPa ENE 2.9 km/h 5.6 km/h 64 % 0 mm
12:25 20.1 °C 14.6 °C 1014.1 hPa Calm   1.9 km/h 71 % 0 mm
12:30 20.5 °C 13.2 °C 1013.8 hPa Calm   1.9 km/h 63 % 0 mm
12:35 20.9 °C 13.6 °C 1013.8 hPa ENE 4 km/h 7.4 km/h 63 % 0 mm
12:40 21.2 °C 12.8 °C 1013.8 hPa NE 1.3 km/h 3.7 km/h 59 % 0 mm
12:45 21.3 °C 13 °C 1013.8 hPa ENE 2.9 km/h 5.6 km/h 59 % 0 mm
12:50 21.4 °C 13.1 °C 1013.8 hPa NE 5.5 km/h 9.3 km/h 59 % 0 mm
12:55 21.6 °C 13 °C 1013.8 hPa Calm   1.9 km/h 58 % 0 mm
13:00 21.7 °C 13.1 °C 1013.8 hPa NE 0.6 km/h 9.3 km/h 58 % 0 mm
13:05 21.6 °C 12.4 °C 1013.8 hPa NE 0.8 km/h 5.6 km/h 56 % 0 mm
13:10 21.6 °C 12.7 °C 1013.8 hPa ENE 1.1 km/h 5.6 km/h 57 % 0 mm
13:15 21.6 °C 12.1 °C 1013.8 hPa ENE 4 km/h 5.6 km/h 55 % 0 mm
13:20 21.7 °C 11.9 °C 1013.8 hPa ENE 1.3 km/h 7.4 km/h 54 % 0 mm
13:25 21.8 °C 13.2 °C 1013.8 hPa ENE 3.1 km/h 6.4 km/h 58 % 0 mm
13:30 21.6 °C 12.1 °C 1013.8 hPa NE 3.4 km/h 6.4 km/h 55 % 0 mm
13:35 21.5 °C 11.8 °C 1013.8 hPa ENE 2.6 km/h 5.6 km/h 54 % 0 mm
13:40 21.6 °C 11.8 °C 1013.8 hPa East 0.6 km/h 7.4 km/h 54 % 0 mm
13:41 21.6 °C 12.9 °C 1013.8 hPa ENE 3.2 km/h 5.6 km/h 58 % 0 mm
13:46 21.6 °C 13 °C 1013.8 hPa NNE 3.7 km/h 9.3 km/h 58 % 0 mm
13:51 21.7 °C 13.3 °C 1013.8 hPa North 0.8 km/h 3.7 km/h 59 % 0 mm
13:56 21.7 °C 13.1 °C 1013.8 hPa Calm   1.9 km/h 58 % 0 mm
14:01 21.9 °C 13.8 °C 1013.8 hPa NNE 3.1 km/h 8 km/h 60 % 0 mm
14:06 22.1 °C 13.2 °C 1013.8 hPa North 1.4 km/h 4.8 km/h 57 % 0 mm
14:11 22.1 °C 13.2 °C 1013.8 hPa NNE 7.1 km/h 9.7 km/h 57 % 0 mm
14:16 22.1 °C 14.2 °C 1013.8 hPa North 3.2 km/h 9.3 km/h 61 % 0 mm
14:21 22.3 °C 13.3 °C 1014.1 hPa NNE 4 km/h 8 km/h 57 % 0 mm
14:26 22.4 °C 14 °C 1014.1 hPa NNE 3.4 km/h 5.6 km/h 59 % 0 mm
14:31 22.6 °C 13.1 °C 1013.8 hPa North 3.9 km/h 11.1 km/h 55 % 0 mm
14:36 22.8 °C 12.7 °C 1013.8 hPa WNW 0.3 km/h 9.3 km/h 53 % 0 mm
14:42 22.8 °C 13.3 °C 1013.8 hPa NNE 0.3 km/h 5.6 km/h 55 % 0 mm
14:47 22.9 °C 13.4 °C 1013.8 hPa WNW 2.1 km/h 5.6 km/h 55 % 0 mm
14:52 23.1 °C 13.5 °C 1013.8 hPa NW 3.5 km/h 6.4 km/h 55 % 0 mm
14:53 23.1 °C 12.7 °C 1013.8 hPa NW 3.5 km/h 6.4 km/h 52 % 0 mm
14:58 23.2 °C 13.1 °C 1013.8 hPa North 4.2 km/h 7.4 km/h 53 % 0 mm
15:03 23.2 °C 13.6 °C 1013.8 hPa NNW 1.6 km/h 3.7 km/h 55 % 0 mm
15:08 23.2 °C 13.4 °C 1013.8 hPa NE 1.9 km/h 7.4 km/h 54 % 0 mm
15:13 23.2 °C 12.8 °C 1013.8 hPa NNW 5.5 km/h 11.1 km/h 52 % 0 mm
15:18 23.2 °C 11.2 °C 1014.1 hPa NNW 3.9 km/h 5.6 km/h 47 % 0 mm
15:23 23.1 °C 10.8 °C 1013.8 hPa Calm   1.6 km/h 46 % 0 mm
15:28 23.1 °C 12.4 °C 1013.8 hPa NNE 3.7 km/h 7.4 km/h 51 % 0 mm
15:33 23.1 °C 12.1 °C 1013.8 hPa WNW 5.3 km/h 7.4 km/h 50 % 0 mm
15:38 23.2 °C 12.2 °C 1013.8 hPa NW 2.4 km/h 6.4 km/h 50 % 0 mm
15:43 23.2 °C 12.2 °C 1014.1 hPa North 1.9 km/h 5.6 km/h 50 % 0 mm
15:48 23 °C 11.4 °C 1014.1 hPa NNW 5.8 km/h 11.1 km/h 48 % 0 mm
15:53 22.9 °C 11.9 °C 1013.8 hPa NW 5 km/h 11.1 km/h 50 % 0 mm
15:58 22.8 °C 11.9 °C 1014.1 hPa WNW 5.5 km/h 7.4 km/h 50 % 0 mm
16:03 22.9 °C 12.5 °C 1014.1 hPa North 2.3 km/h 4.8 km/h 52 % 0 mm
16:08 22.8 °C 10.9 °C 1014.1 hPa NNW 1.1 km/h 5.6 km/h 47 % 0 mm
16:14 22.7 °C 11.8 °C 1014.1 hPa NNE 1.1 km/h 5.6 km/h 50 % 0 mm
16:19 22.6 °C 11.7 °C 1014.1 hPa North 2.9 km/h 5.6 km/h 50 % 0 mm
16:24 22.4 °C 11.5 °C 1014.1 hPa WNW 4.2 km/h 5.6 km/h 50 % 0 mm
16:29 22.4 °C 11.8 °C 1014.1 hPa WNW 2.1 km/h 5.6 km/h 51 % 0 mm
16:34 22.4 °C 10.8 °C 1014.1 hPa NW 3.4 km/h 5.6 km/h 48 % 0 mm
16:39 22.3 °C 12 °C 1014.1 hPa NNE 1.3 km/h 5.6 km/h 52 % 0 mm
16:44 22.1 °C 11.2 °C 1014.1 hPa North 1.9 km/h 5.6 km/h 50 % 0 mm
16:49 22 °C 11.4 °C 1014.1 hPa WNW 2.7 km/h 5.6 km/h 51 % 0 mm
16:54 21.9 °C 11 °C 1014.1 hPa WNW 2.6 km/h 3.7 km/h 50 % 0 mm
16:59 21.8 °C 11.2 °C 1014.4 hPa WNW 1.9 km/h 5.6 km/h 51 % 0 mm
17:00 21.8 °C 11.2 °C 1014.1 hPa WNW 2.7 km/h 6.4 km/h 51 % 0 mm
17:05 21.7 °C 11.9 °C 1014.4 hPa WNW 0.2 km/h 1.9 km/h 54 % 0 mm
17:10 21.6 °C 11.8 °C 1014.4 hPa North 0.8 km/h 5.6 km/h 54 % 0 mm
17:15 21.4 °C 12.8 °C 1014.4 hPa NNW 1.4 km/h 5.6 km/h 58 % 0 mm
17:20 21.4 °C 11.7 °C 1014.1 hPa WNW 3.2 km/h 5.6 km/h 54 % 0 mm
17:25 21.3 °C 11.3 °C 1014.1 hPa WNW 1.6 km/h 5.6 km/h 53 % 0 mm
17:30 21.3 °C 12.2 °C 1014.4 hPa NW 0.2 km/h 1.9 km/h 56 % 0 mm
17:35 21.2 °C 11.6 °C 1014.1 hPa Calm   1.6 km/h 54 % 0 mm
17:40 21.2 °C 11.5 °C 1014.1 hPa NNW 1.8 km/h 3.7 km/h 54 % 0 mm
17:45 21.1 °C 11.4 °C 1014.1 hPa NNW 0.5 km/h 3.7 km/h 54 % 0 mm
17:50 21 °C 11.6 °C 1014.1 hPa Calm     55 % 0 mm
17:55 20.9 °C 10.7 °C 1014.1 hPa NNW 0.2 km/h 1.6 km/h 52 % 0 mm
18:00 20.9 °C 11.2 °C 1014.1 hPa NNW 0.5 km/h 1.9 km/h 54 % 0 mm
18:05 20.8 °C 10.9 °C 1014.1 hPa NNW 1.3 km/h 3.7 km/h 53 % 0 mm
18:10 20.8 °C 11.4 °C 1014.4 hPa NW 1.3 km/h 3.7 km/h 55 % 0 mm
18:15 20.8 °C 11.4 °C 1014.1 hPa Calm     55 % 0 mm
18:20 20.7 °C 10.8 °C 1014.1 hPa West 1.6 km/h 5.6 km/h 53 % 0 mm
18:25 20.7 °C 10.4 °C 1014.1 hPa West 2.6 km/h 5.6 km/h 52 % 0 mm
18:30 20.6 °C 10.4 °C 1014.1 hPa West 1 km/h 3.2 km/h 52 % 0 mm
18:35 20.5 °C 10.3 °C 1014.1 hPa WNW 2.3 km/h 5.6 km/h 52 % 0 mm
18:40 20.4 °C 10.6 °C 1014.1 hPa WNW 1.6 km/h 3.7 km/h 53 % 0 mm
18:45 20.4 °C 10.8 °C 1014.1 hPa WSW 0.6 km/h 3.7 km/h 54 % 0 mm
18:50 20.3 °C 10.4 °C 1014.4 hPa WSW 2.9 km/h 5.6 km/h 53 % 0 mm
18:55 20.3 °C 10.9 °C 1014.4 hPa WSW 0.8 km/h 1.9 km/h 55 % 0 mm
19:01 20.2 °C 11.2 °C 1014.4 hPa NW 0.8 km/h 5.6 km/h 56 % 0 mm
19:06 20.2 °C 11.2 °C 1014.1 hPa Calm     56 % 0 mm
19:11 20.2 °C 11.4 °C 1014.4 hPa NW 1.6 km/h 4.8 km/h 57 % 0 mm
19:16 20.1 °C 11.6 °C 1014.1 hPa WSW 1.6 km/h 6.4 km/h 58 % 0 mm
19:21 20.1 °C 11.6 °C 1014.4 hPa SW 1.6 km/h 4.8 km/h 58 % 0 mm
19:26 20 °C 11.5 °C 1014.1 hPa WSW 1.6 km/h 4.8 km/h 58 % 0 mm
19:31 19.9 °C 11.7 °C 1014.1 hPa West 1.9 km/h 3.7 km/h 59 % 0 mm
19:36 19.9 °C 11.6 °C 1014.4 hPa West 1.6 km/h 8 km/h 59 % 0 mm
19:41 19.8 °C 11.6 °C 1014.4 hPa WSW 0.6 km/h 5.6 km/h 59 % 0 mm
19:46 19.7 °C 11.7 °C 1014.4 hPa West 1.6 km/h 6.4 km/h 60 % 0 mm
19:51 19.6 °C 11.9 °C 1014.4 hPa WNW 3.2 km/h 4.8 km/h 61 % 0 mm
19:56 19.5 °C 11.8 °C 1014.4 hPa West 1.6 km/h 8 km/h 61 % 0 mm
20:01 19.4 °C 11.9 °C 1014.4 hPa WSW 0.2 km/h   62 % 0 mm
20:06 19.2 °C 12.3 °C 1014.4 hPa Calm   4.8 km/h 64 % 0 mm
20:11 19.1 °C 12.3 °C 1014.4 hPa Calm   1.9 km/h 65 % 0 mm
20:16 18.9 °C 12.4 °C 1014.4 hPa Calm     66 % 0 mm
20:21 18.7 °C 12.4 °C 1014.4 hPa Calm     67 % 0 mm
20:26 18.4 °C 12.4 °C 1014.8 hPa Calm   1.9 km/h 68 % 0 mm
20:31 18.2 °C 12.6 °C 1014.8 hPa Calm     70 % 0 mm
20:36 17.9 °C 12.6 °C 1014.8 hPa Calm     71 % 0 mm
20:41 17.7 °C 12.4 °C 1014.8 hPa Calm     71 % 0 mm
20:46 17.5 °C 12.4 °C 1014.8 hPa Calm   1.9 km/h 72 % 0 mm
20:48 17.4 °C 12.3 °C 1014.8 hPa WSW 0.2 km/h 1.9 km/h 72 % 0 mm
20:53 17.3 °C 12.4 °C 1014.8 hPa Calm     73 % 0 mm
20:58 17.1 °C 12.2 °C 1014.8 hPa WSW 0.2 km/h 1.9 km/h 73 % 0 mm
21:03 17 °C 12.3 °C 1014.8 hPa Calm     74 % 0 mm
21:08 16.9 °C 12.2 °C 1014.8 hPa Calm     74 % 0 mm
21:13 16.7 °C 12.3 °C 1015.1 hPa Calm     75 % 0 mm
21:18 16.5 °C 12.3 °C 1014.8 hPa Calm     76 % 0 mm
21:23 16.3 °C 12.1 °C 1015.1 hPa Calm   1.9 km/h 76 % 0 mm
21:28 16.2 °C 12 °C 1015.1 hPa Calm   1.9 km/h 76 % 0 mm
21:33 16.1 °C 11.8 °C 1015.1 hPa Calm     76 % 0 mm
21:38 15.9 °C 11.7 °C 1015.1 hPa Calm   1.9 km/h 76 % 0 mm
21:43 15.8 °C 11.6 °C 1015.1 hPa Calm     76 % 0 mm
21:48 15.6 °C 11.4 °C 1015.1 hPa Calm     76 % 0 mm
21:53 15.5 °C 11.5 °C 1015.1 hPa WSW 0.2 km/h   77 % 0 mm
21:58 15.4 °C 11.4 °C 1015.1 hPa Calm     77 % 0 mm
22:03 15.3 °C 11.3 °C 1015.1 hPa Calm   1.9 km/h 77 % 0 mm
22:08 15.2 °C 11.4 °C 1015.1 hPa Calm     78 % 0 mm
22:13 15.1 °C 11.3 °C 1015.1 hPa Calm   3.7 km/h 78 % 0 mm
22:18 15 °C 11.4 °C 1015.1 hPa Calm     79 % 0 mm
22:23 14.9 °C 11.4 °C 1015.1 hPa Calm     80 % 0 mm
22:28 14.8 °C 11.3 °C 1015.1 hPa Calm   3.7 km/h 80 % 0 mm
22:33 14.7 °C 11.4 °C 1015.1 hPa WSW 0.5 km/h 1.9 km/h 81 % 0 mm
22:38 14.6 °C 11.2 °C 1015.1 hPa WSW 0.3 km/h 1.9 km/h 80 % 0 mm
22:43 14.4 °C 11.2 °C 1015.5 hPa Calm     81 % 0 mm
22:49 14.3 °C 11.1 °C 1015.5 hPa WSW 2.1 km/h 5.6 km/h 81 % 0 mm
22:53 14.3 °C 11.2 °C 1015.5 hPa WSW 2.1 km/h 3.7 km/h 82 % 0 mm
22:58 14.2 °C 10.9 °C 1015.5 hPa WSW 2.6 km/h 3.7 km/h 81 % 0 mm
23:03 14.1 °C 10.8 °C 1015.1 hPa WSW 1.8 km/h 3.7 km/h 81 % 0 mm
23:08 14 °C 11 °C 1015.5 hPa Calm   1.9 km/h 82 % 0 mm
23:13 13.9 °C 10.9 °C 1015.5 hPa Calm   1.9 km/h 82 % 0 mm
23:19 13.8 °C 10.8 °C 1015.5 hPa Calm     82 % 0 mm
23:24 13.7 °C 10.9 °C 1015.5 hPa WSW 0.5 km/h 1.9 km/h 83 % 0 mm
23:29 13.7 °C 10.8 °C 1015.5 hPa Calm   1.9 km/h 83 % 0 mm
23:34 13.6 °C 10.6 °C 1015.5 hPa Calm     82 % 0 mm
23:39 13.5 °C 10.7 °C 1015.5 hPa Calm   1.9 km/h 83 % 0 mm
23:44 13.4 °C 10.6 °C 1015.5 hPa WSW 0.3 km/h 1.9 km/h 83 % 0 mm
23:49 13.4 °C 10.6 °C 1015.5 hPa Calm     83 % 0 mm
23:54 13.3 °C 10.5 °C 1015.5 hPa Calm     83 % 0 mm
23:59 13.3 °C 10.7 °C 1015.5 hPa Calm     84 % 0 mm
Crab Meadow Weather
Compliments of Weather Underground - 3.25 mb

Script developed by  Jim McMurry - jmcmurry@mwt.net Adapted for the template by  Wim van der Kuil - Leuven-Template.eu

Weather Terms: Dew Point - A measure of atmospheric moisture. It is the temperature to which air must be cooled in order to reach saturation (assuming pressure and moisture content are constant).